Weather History for Enid, OK

Change the Weather History Date:

Monday, June 23, 2014

  Actual Average Record
Temperature  
Mean Temperature 75 °F -  
Max Temperature 86 °F 87 °F 100 °F (2010)
Min Temperature 64 °F 66 °F 60 °F (2001)
Cooling Degree Days 10    
Growing Degree Days 25 (Base 50)    
Moisture  
Dew Point 65 °F    
Average Humidity 85    
Maximum Humidity 100    
Minimum Humidity 45    
Precipitation  
Precipitation 0.96 in - - ()
Sea Level Pressure  
Sea Level Pressure 29.93 in    
Wind  
Wind Speed 11 mph (NNE)    
Max Wind Speed 23 mph    
Max Gust Speed 29 mph    
Visibility 8 miles    
Events Thunderstorm    
Averages and records for this station are not official NWS values.
T = Trace of Precipitation, MM = Missing Value Source: NWS Daily Summary

Daily Weather History Graph

Daily Weather History Graph

Search for Another Location

Airport:

Trip Planner

Search our weather history database for the weather conditions in past years. The results will help you decide how hot, cold, wet, or windy it might be!

Date:

Astronomy

Jun. 23, 2014 Rise Set
Actual Time 6:14 AM CDT 8:52 PM CDT
Civil Twilight 5:43 AM CDT 9:23 PM CDT
Nautical Twilight 5:05 AM CDT 10:01 PM CDT
Astronomical Twilight 4:23 AM CDT 10:43 PM CDT
Moon 3:36 AM CDT (6/23) 5:39 PM CDT (6/23)
Length of Visible Light 15h 39m
Length of Day
14h 38m
Waning Crescent, 13% of the Moon is Illuminated
Jun 23
Waning Crescent
Jun 27
New
Jul 5
First Quarter
Jul 12
Full
Jul 18
Last Quarter

Hourly Weather History & Observations

Time (CDT) Temp. Heat Index Dew Point Humidity Pressure Visibility Wind Dir Wind Speed Gust Speed Precip Events Conditions
12:15 AM 66.2 °F - 62.6 °F 88% 29.92 in 10.0 mi ENE 23.0 mph 28.8 mph 0.01 in   Unknown
12:35 AM 66.2 °F - 62.6 °F 88% 29.92 in 10.0 mi NE 16.1 mph 21.9 mph 0.01 in   Overcast
12:55 AM 66.2 °F - 62.6 °F 88% 29.92 in 10.0 mi NE 16.1 mph - 0.01 in   Unknown
1:15 AM 66.2 °F - 62.6 °F 88% 29.92 in 10.0 mi ENE 16.1 mph - N/A Thunderstorm Overcast
1:55 AM 64.4 °F - 64.4 °F 100% 29.95 in 0.5 mi NNE 5.8 mph - 0.34 in Thunderstorm Unknown
2:15 AM 64.4 °F - 64.4 °F 100% 29.96 in 2.0 mi NNE 3.5 mph - 0.11 in Thunderstorm Unknown
2:35 AM 64.4 °F - 64.4 °F 100% 29.97 in 2.5 mi NNW 3.5 mph - 0.21 in Thunderstorm Unknown
2:55 AM 64.4 °F - 64.4 °F 100% 29.97 in 2.5 mi WNW 4.6 mph - 0.29 in Thunderstorm Unknown
3:15 AM 64.4 °F - 64.4 °F 100% 29.95 in 3.0 mi Calm Calm - 0.07 in Thunderstorm Unknown
3:35 AM 64.4 °F - 64.4 °F 100% 29.92 in 3.0 mi East 8.1 mph - 0.14 in Thunderstorm Unknown
3:55 AM 64.4 °F - 64.4 °F 100% 29.90 in 3.0 mi ESE 6.9 mph - 0.22 in   Unknown
4:15 AM 64.4 °F - 64.4 °F 100% 29.89 in 4.0 mi SE 8.1 mph - 0.04 in Thunderstorm Unknown
4:35 AM 64.4 °F - 64.4 °F 100% 29.86 in 5.0 mi SE 12.7 mph - 0.07 in   Unknown
4:55 AM 64.4 °F - 64.4 °F 100% 29.81 in 10.0 mi SE 20.7 mph 27.6 mph 0.09 in   Unknown
5:15 AM 64.4 °F - 64.4 °F 100% 29.86 in 10.0 mi SW 9.2 mph 20.7 mph N/A Thunderstorm Unknown
5:35 AM 64.4 °F - 64.4 °F 100% 29.88 in 10.0 mi West 6.9 mph - 0.01 in   Unknown
5:55 AM 64.4 °F - 64.4 °F 100% 29.86 in 10.0 mi South 3.5 mph - 0.01 in   Unknown
6:15 AM 66.2 °F - 66.2 °F 100% 29.84 in 10.0 mi East 13.8 mph - N/A   Overcast
6:50 AM 66.2 °F - 66.2 °F 100% 29.84 in 10.0 mi NNW 9.2 mph - N/A   Overcast
7:50 AM 66.2 °F - 66.2 °F 100% 29.90 in 10.0 mi WNW 11.5 mph 17.3 mph N/A   Overcast
8:50 AM 69.8 °F - 66.2 °F 88% 29.92 in 10.0 mi NNW 11.5 mph 17.3 mph N/A   Overcast
9:50 AM 71.6 °F - 66.2 °F 83% 29.93 in 10.0 mi North 17.3 mph - N/A   Overcast
10:50 AM 75.2 °F - 66.2 °F 73% 29.94 in 10.0 mi North 11.5 mph 17.3 mph N/A   Overcast
11:50 AM 77.0 °F - 66.2 °F 69% 29.95 in 10.0 mi NNW 11.5 mph 17.3 mph N/A   Overcast
12:50 PM 80.6 °F 82.7 °F 66.2 °F 61% 29.94 in 10.0 mi North 11.5 mph 17.3 mph N/A   Mostly Cloudy
1:50 PM 80.6 °F 83.2 °F 68.0 °F 65% 29.94 in 10.0 mi North 11.5 mph 17.3 mph N/A   Mostly Cloudy
2:50 PM 82.4 °F 84.6 °F 66.2 °F 58% 29.94 in 10.0 mi North 6.9 mph - N/A   Mostly Cloudy
3:50 PM 84.2 °F 85.0 °F 62.6 °F 48% 29.93 in 10.0 mi NNE 6.9 mph - N/A   Mostly Cloudy
5:50 PM 86.0 °F 86.6 °F 62.6 °F 45% 29.92 in 10.0 mi NW 4.6 mph - N/A   Scattered Clouds
6:50 PM 86.0 °F 86.6 °F 62.6 °F 45% 29.91 in 10.0 mi NNW 5.8 mph - N/A   Scattered Clouds
7:50 PM 84.2 °F 85.6 °F 64.4 °F 51% 29.92 in 10.0 mi Calm Calm - N/A   Scattered Clouds
8:50 PM 77.0 °F - 66.2 °F 69% 29.94 in 10.0 mi East 4.6 mph - N/A   Scattered Clouds
9:15 PM 73.4 °F - 66.2 °F 78% 29.94 in 10.0 mi ESE 3.5 mph - N/A   Clear
9:35 PM 71.6 °F - 66.2 °F 83% 29.95 in 10.0 mi SE 3.5 mph - N/A   Clear
10:15 PM 71.6 °F - 68.0 °F 88% 29.97 in 10.0 mi Calm Calm - N/A   Clear
10:35 PM 71.6 °F - 68.0 °F 88% 29.98 in 10.0 mi Calm Calm - N/A   Clear
10:55 PM 71.6 °F - 68.0 °F 88% 29.99 in 10.0 mi SW 3.5 mph - N/A   Clear
11:15 PM 69.8 °F - 68.0 °F 94% 29.99 in 10.0 mi SW 3.5 mph - N/A   Clear
11:35 PM 69.8 °F - 68.0 °F 94% 30.01 in 10.0 mi Calm Calm - N/A   Clear
11:55 PM 71.6 °F - 68.0 °F 88% 30.00 in 10.0 mi Calm Calm - N/A   Clear